Starlink 32906

operational
NORAD ID: 63080 Int'l Des: 2025-037 Owner: SPXS Country: US Constellation: starlink
LEOCIRCULAR

Über Starlink 32906

Beschreibung wird geladen...

Live-Position

3D-Globus wird geladen...

Nächste Überflüge

Höhenverlauf

Altitude vs Time

uPlot chart will show altitude changes over time

Zweizeiliger Elementsatz

1 63080U 25037D 25351.01591890 .00002515 00000-0 21849-3 0 9993
2 63080 69.9997 203.0862 0002402 273.4212 86.6672 14.98337919 46210
Epoch: 17. Dez. 2025 • Age: 17 hours

Aktueller Status

Höhe 585.4 km
Geschwindigkeit 7.57 km/s
Subsatellitenpunkt -39.51°S, 169.98°W
Startdatum 23. Feb. 2025
Alter 0.8 years
Typ internet

Technische Details

Klassifizierung Payload
Masse 730.00 kg
Trockenmasse 700.00 kg
Gesamtmasse 730.00 kg
Länge 0.30 m
Durchmesser 4.10 m
Spannweite 29.00 m
Form Box + pan
Hersteller SPXS
Bus-Typ Starlink V2M
Phasenstatus In Orbit
Besitzer/Staat SPXS/US

Große Konstellationen

Loading constellations...